Regional Weather Roundup
Issued by NWS Portland, ME

Current Version | Previous Version | Text Only | Print | Product List | Glossary Off
Versions: 1 2 3 4 5 6 7 8 9 10 11 12 13 14 15 16 17 18 19 20 21 22 23 24 25 26 27 28 29 30 31 32 33 34 35 36 37 38 39 40 41 42 43 44 45 46 47 48 49 50
000 ASUS41 KGYX 172105 RWRGYX WEATHER ROUNDUP FOR MAINE AND NEW HAMPSHIRE NATIONAL WEATHER SERVICE GRAY ME 500 PM EDT TUE OCT 17 2017 MEZ002-005-006-010-012-015-018-020-021-024-026-027-029-172200- MAINE CITY SKY/WX TMP DP RH WIND PRES REMARKS PORTLAND CLEAR 53 36 52 S8 30.17F SANFORD CLEAR 55 30 38 SW9 30.18F BAR HARBOR CLEAR 50 30 46 SW10 30.16S WISCASSET CLEAR 52 34 50 SW8 30.19S ROCKLAND CLEAR 51 35 54 SW9 30.16F FRYEBURG CLEAR 54 33 45 S5 30.14F LEWISTONAUBURN CLEAR 54 30 40 S9 30.16S AUGUSTA CLEAR 53 29 39 SW6 30.15F WATERVILLE CLEAR 52 31 44 VRB5 30.12S BANGOR PTCLDY 53 29 39 SW6 30.14F GREENVILLE N/A 49 29 46 VRB5 30.06F MILLINOCKET CLOUDY 52 31 44 SW3 30.10F HOULTON MOCLDY 50 31 48 W9 30.07F PRESQUE ISLE CLOUDY 49 31 49 SW6 30.06 FRENCHVILLE CLOUDY 44 29 55 S8 30.01F CARIBOU CLOUDY 49 31 49 SW6 30.04F $$ NHZ002-005-008-009-011-012-014-172200- NEW HAMPSHIRE CITY SKY/WX TMP DP RH WIND PRES REMARKS PORTSMOUTH CLEAR 56 30 37 SW8 30.17F ROCHESTER CLEAR 55 29 36 CALM 30.17F NASHUA CLEAR 56 29 35 W3 30.20S MANCHESTER CLEAR 57 28 33 W7 30.17F CONCORD CLEAR 57 30 35 SW7 30.18S LACONIA CLEAR 55 28 35 SW13 30.16F PLYMOUTH FAIR 56 28 32 CALM 30.14F BERLIN CLEAR 52 29 41 VRB3 30.11F WHITEFIELD CLEAR 52 30 43 S5 30.12F JAFFREY CLEAR 54 29 38 S7 30.19S KEENE SUNNY 58 29 33 S6 30.19F LEBANON CLEAR 58 26 29 SW7 30.13F MT WASHINGTON PTCLDY 27 18 69 W30 N/A WCI 10 $$ VTZ005-007-008-172200- VERMONT CITY SKY/WX TMP DP RH WIND PRES REMARKS ST JOHNSBURY N/A 54 32 43 MISG 30.10F MONTPELIER CLEAR 53 28 38 S7 30.15F BURLINGTON MOSUNNY 56 30 37 S12 30.10F $$ MAZ007-012-024-CTZ003-RIZ002-NYZ038-NYZ072-172200- SOUTHERN NEW ENGLAND AND NY CITY SKY/WX TMP DP RH WIND PRES REMARKS BOSTON PTCLDY 56 27 32 SW10 30.21F WORCESTER SUNNY 53 24 32 SW9 30.20F NANTUCKET CLEAR 53 36 52 NW5 30.24F PROVIDENCE MOSUNNY 56 36 47 S10 30.24S HARTFORD SUNNY 58 29 33 S9 30.21F ALBANY SUNNY 56 31 38 S8 30.20F NEW YORK CITY SUNNY 60 29 30 SW6 30.24F $$ ANZ081-ANZ082-ANZ150-NHZ014-MEZ023>029-172200- COASTAL MARINE OBSERVATIONS STATION/POSITION TIME TEMP WIND PRES WAVE AIR SEA DIR/SP/G HT/PER (UTC) (F) (DEG/KT/KT) (MB) (FT/S) MOUNT DESERT ROC 2100 48 220/ 13/ 14 1022.1F MATINICUS ROCK 2000 48 230/ 14/ 16 1021.9F ISLE OF SHOALS 2000 52 180/ 14/ 15 1022.4F JEFFREYS LEDGE 2006 60 N/A 3/ 7 CASHES LEDGE BUO 1950 51 56 1023.2 3/ 7 GEORGES BANK BUO 1950 51 58 1021.0 7/ 7 $$ .............KEY.............. WCI - WIND CHILL TC - TEMPERATURE IN CELSIUS VSB - VISIBILITY IN MILES HX - HEAT INDEX FAIR- INDICATES FEW OR NO CLOUDS BELOW 12,000 FT, WITH NO SIGNIFICANT WEATHER AND/OR OBSTRUCTIONS TO VISIBILITY.

USA.gov is the U.S. government's official web portal to all federal, state and local government web resources and services.